Location: ??????
(36.0418°N, 43.6351°E)
Time: 05:27:57
(UTC+00:00)

Cosmos 883 Rocket - Pass Details

Date: 23 June 2021
Orbit: 950 x 996 km, 83.0° (Epoch: 27 July)

Event Time Altitude Azimuth Distance (km) Brightness Sun altitude
Rises 23:13:03 0° 2° (N) 3,632 8.5 -23.6°
Reaches altitude 10° 23:15:44 10° 10° (N) 2,681 7.7 -23.3°
Maximum altitude 23:21:26 39° 78° (ENE) 1,384 5.6 -22.7°
Drops below altitude 10° 23:27:05 10° 146° (SSE) 2,669 6.6 -22.1°
Enters shadow 23:27:39 - 149° (SSE) 2,871 6.7 -22.0°
